ARU2687 TNCA-TNCC

Flight info

Callsign ARU2687
Flight time 0h 18m
Altitude 9000
Route ADRIV IRLEP
Aircraft MD88/M-VGDW/C

Departure

Time 2026-04-26 01:03
Airport Queen Beatrix International Airport (TNCA)

Arrival

Time 2026-04-26 01:22
Airport Hato International Airport (TNCC)
Time Latitude Longitude Altitude Speed Heading
2026-04-26 00:48 12.50247 -70.00768 12 ft 0 kts 14°
2026-04-26 00:53 12.50246 -70.00768 12 ft 3 kts 14°
2026-04-26 00:54 12.50220 -70.00774 12 ft 1 kts 13°
2026-04-26 00:54 12.50206 -70.00777 12 ft 1 kts
2026-04-26 00:54 12.50194 -70.00777 12 ft 1 kts 343°
2026-04-26 00:54 12.50184 -70.00771 12 ft 1 kts 322°
2026-04-26 00:55 12.50176 -70.00763 12 ft 1 kts 302°
2026-04-26 00:55 12.50171 -70.00751 12 ft 1 kts 285°
2026-04-26 00:55 12.50170 -70.00748 12 ft 0 kts 284°
2026-04-26 00:58 12.50171 -70.00753 12 ft 2 kts 283°
2026-04-26 00:58 12.50175 -70.00767 12 ft 3 kts 291°
2026-04-26 00:58 12.50190 -70.00801 12 ft 7 kts 292°
2026-04-26 00:59 12.50210 -70.00860 12 ft 10 kts 286°
2026-04-26 00:59 12.50229 -70.00943 12 ft 13 kts 281°
2026-04-26 00:59 12.50252 -70.01039 12 ft 14 kts 279°
2026-04-26 00:59 12.50230 -70.01140 12 ft 14 kts 264°
2026-04-26 01:00 12.50249 -70.01245 12 ft 15 kts 282°
2026-04-26 01:00 12.50277 -70.01360 12 ft 17 kts 283°
2026-04-26 01:00 12.50306 -70.01489 12 ft 19 kts 282°
2026-04-26 01:00 12.50339 -70.01633 12 ft 22 kts 282°
2026-04-26 01:01 12.50377 -70.01792 12 ft 24 kts 285°
2026-04-26 01:01 12.50420 -70.01965 12 ft 25 kts 284°
2026-04-26 01:01 12.50464 -70.02138 12 ft 24 kts 283°
2026-04-26 01:01 12.50500 -70.02311 12 ft 24 kts 284°
2026-04-26 01:02 12.50543 -70.02481 12 ft 24 kts 285°
2026-04-26 01:02 12.50568 -70.02651 12 ft 24 kts 255°
2026-04-26 01:02 12.50490 -70.02795 12 ft 15 kts 213°
2026-04-26 01:02 12.50444 -70.02789 12 ft 5 kts 132°
2026-04-26 01:03 12.50398 -70.02608 12 ft 59 kts 103°
2026-04-26 01:03 12.50250 -70.01978 12 ft 122 kts 103°
2026-04-26 01:03 12.50024 -70.00954 142 ft 164 kts 102°
2026-04-26 01:03 12.49783 -69.99795 724 ft 173 kts 105°
2026-04-26 01:04 12.49467 -69.98545 1183 ft 192 kts 101°
2026-04-26 01:04 12.49439 -69.97127 1711 ft 205 kts 89°
2026-04-26 01:04 12.49457 -69.95627 2368 ft 218 kts 89°
2026-04-26 01:04 12.49471 -69.94060 3202 ft 224 kts 89°
2026-04-26 01:05 12.49481 -69.92467 4060 ft 228 kts 89°
2026-04-26 01:05 12.49491 -69.90845 4919 ft 231 kts 89°
2026-04-26 01:05 12.49336 -69.89234 5748 ft 234 kts 104°
2026-04-26 01:05 12.48778 -69.87677 6585 ft 237 kts 111°
2026-04-26 01:06 12.48180 -69.86090 7427 ft 240 kts 110°
2026-04-26 01:06 12.47602 -69.84496 8251 ft 243 kts 110°
2026-04-26 01:06 12.47033 -69.82880 8929 ft 244 kts 109°
2026-04-26 01:06 12.46463 -69.81231 8977 ft 247 kts 109°
2026-04-26 01:07 12.45898 -69.79572 8998 ft 248 kts 109°
2026-04-26 01:07 12.45336 -69.77909 8999 ft 247 kts 109°
2026-04-26 01:07 12.44780 -69.76251 8999 ft 247 kts 109°
2026-04-26 01:07 12.44223 -69.74583 8999 ft 246 kts 109°
2026-04-26 01:08 12.43672 -69.72930 8999 ft 246 kts 109°
2026-04-26 01:08 12.43121 -69.71272 8999 ft 246 kts 109°
2026-04-26 01:08 12.42568 -69.69606 8999 ft 246 kts 109°
2026-04-26 01:08 12.42020 -69.67954 8999 ft 246 kts 109°
2026-04-26 01:09 12.41472 -69.66302 9000 ft 246 kts 108°
2026-04-26 01:09 12.40921 -69.64638 9000 ft 246 kts 108°
2026-04-26 01:09 12.40373 -69.62985 9000 ft 246 kts 108°
2026-04-26 01:09 12.39822 -69.61318 9000 ft 246 kts 108°
2026-04-26 01:10 12.39271 -69.59660 8999 ft 246 kts 109°
2026-04-26 01:10 12.38715 -69.58010 9000 ft 246 kts 109°
2026-04-26 01:10 12.38158 -69.56359 8952 ft 248 kts 109°
2026-04-26 01:10 12.37590 -69.54675 8612 ft 251 kts 109°
2026-04-26 01:11 12.37022 -69.52993 8298 ft 253 kts 109°
2026-04-26 01:11 12.36442 -69.51276 7979 ft 255 kts 109°
2026-04-26 01:11 12.35869 -69.49577 7666 ft 256 kts 109°
2026-04-26 01:11 12.35279 -69.47827 7344 ft 258 kts 109°
2026-04-26 01:12 12.34696 -69.46099 7028 ft 259 kts 109°
2026-04-26 01:12 12.34109 -69.44360 6712 ft 261 kts 109°
2026-04-26 01:12 12.33517 -69.42606 6396 ft 262 kts 109°
2026-04-26 01:12 12.32922 -69.40841 6077 ft 263 kts 109°
2026-04-26 01:13 12.32329 -69.39081 5759 ft 264 kts 109°
2026-04-26 01:13 12.31732 -69.37311 5440 ft 265 kts 109°
2026-04-26 01:13 12.31131 -69.35513 5117 ft 266 kts 108°
2026-04-26 01:13 12.30540 -69.33731 4798 ft 266 kts 109°
2026-04-26 01:14 12.29942 -69.31934 4477 ft 267 kts 109°
2026-04-26 01:14 12.29348 -69.30145 4158 ft 267 kts 109°
2026-04-26 01:14 12.28748 -69.28341 3836 ft 268 kts 109°
2026-04-26 01:14 12.28153 -69.26552 3517 ft 268 kts 109°
2026-04-26 01:15 12.27548 -69.24734 3193 ft 269 kts 109°
2026-04-26 01:15 12.26948 -69.22930 3009 ft 263 kts 109°
2026-04-26 01:15 12.26378 -69.21216 2988 ft 251 kts 109°
2026-04-26 01:15 12.25826 -69.19553 2958 ft 241 kts 109°
2026-04-26 01:16 12.25288 -69.17937 2805 ft 237 kts 109°
2026-04-26 01:16 12.24630 -69.16425 2658 ft 232 kts 124°
2026-04-26 01:16 12.23534 -69.15278 2561 ft 224 kts 139°
2026-04-26 01:16 12.22687 -69.14046 2547 ft 205 kts 111°
2026-04-26 01:17 12.22384 -69.12691 2452 ft 188 kts 101°
2026-04-26 01:17 12.22144 -69.11414 2280 ft 177 kts 101°
2026-04-26 01:17 12.21902 -69.10239 2116 ft 162 kts 102°
2026-04-26 01:17 12.21675 -69.09171 2066 ft 145 kts 102°
2026-04-26 01:18 12.21468 -69.08183 2031 ft 137 kts 102°
2026-04-26 01:18 12.21271 -69.07245 1993 ft 134 kts 102°
2026-04-26 01:18 12.21074 -69.06310 1903 ft 135 kts 102°
2026-04-26 01:18 12.20876 -69.05372 1729 ft 135 kts 102°
2026-04-26 01:19 12.20678 -69.04433 1556 ft 133 kts 102°
2026-04-26 01:19 12.20485 -69.03516 1386 ft 130 kts 102°
2026-04-26 01:19 12.20297 -69.02623 1205 ft 129 kts 102°
2026-04-26 01:19 12.20110 -69.01736 1033 ft 127 kts 102°
2026-04-26 01:20 12.19922 -69.00845 864 ft 127 kts 102°
2026-04-26 01:20 12.19737 -68.99972 699 ft 126 kts 102°
2026-04-26 01:20 12.19551 -68.99090 532 ft 126 kts 102°
2026-04-26 01:20 12.19366 -68.98215 365 ft 126 kts 102°
2026-04-26 01:21 12.19183 -68.97349 200 ft 125 kts 102°
2026-04-26 01:21 12.19002 -68.96479 47 ft 124 kts 101°
2026-04-26 01:21 12.18847 -68.95666 42 ft 105 kts 108°
2026-04-26 01:21 12.18699 -68.95012 42 ft 85 kts 102°
2026-04-26 01:22 12.18609 -68.94585 43 ft 31 kts 102°
2026-04-26 01:22 12.18545 -68.94467 45 ft 15 kts 162°
2026-04-26 01:22 12.18455 -68.94479 47 ft 11 kts 197°
2026-04-26 01:22 12.18411 -68.94524 47 ft 7 kts 260°
2026-04-26 01:23 12.18419 -68.94581 47 ft 10 kts 282°
2026-04-26 01:23 12.18441 -68.94685 47 ft 19 kts 282°
2026-04-26 01:23 12.18472 -68.94837 47 ft 23 kts 284°
2026-04-26 01:23 12.18507 -68.95003 49 ft 23 kts 275°
2026-04-26 01:24 12.18540 -68.95172 47 ft 24 kts 282°
2026-04-26 01:24 12.18577 -68.95342 49 ft 24 kts 282°
2026-04-26 01:24 12.18616 -68.95513 48 ft 25 kts 280°
2026-04-26 01:24 12.18645 -68.95661 47 ft 17 kts 283°
2026-04-26 01:25 12.18642 -68.95702 48 ft 2 kts 211°
2026-04-26 01:25 12.18619 -68.95713 49 ft 6 kts 203°
2026-04-26 01:25 12.18576 -68.95725 52 ft 3 kts 192°
2026-04-26 01:25 12.18571 -68.95726 52 ft 0 kts 193°